| time (UTC) | temp C | wind direction | speed KPH | gust KPH | rain 1hr cm | rain 24hr cm | rain mn cm | humidity % | barometer mb |
| 20260506234530 | 10 | 332 | 0.0 | 1.6 | 0.00 | 2.49 | 0.00 | 96 | 1012.0 |
| 20260506233013 | 10 | 328 | 0.0 | 1.6 | 0.00 | 2.49 | 0.00 | 95 | 1011.9 |
| 20260506231619 | 10 | 328 | 0.0 | 1.6 | 0.00 | 2.49 | 0.00 | 95 | 1012.0 |
| 20260506230044 | 10 | 328 | 0.0 | 1.6 | 0.00 | 2.49 | 0.00 | 95 | 1012.0 |
| 20260506224528 | 10 | 328 | 0.0 | 0.0 | 0.00 | 2.49 | 0.00 | 95 | 1012.1 |
| 20260506223014 | 10 | 328 | 0.0 | 1.6 | 0.00 | 2.49 | 0.00 | 95 | 1012.0 |
| 20260506221600 | 10 | 328 | 0.0 | 0.0 | 0.00 | 2.49 | 0.00 | 95 | 1012.0 |
| 20260506220041 | 10 | 328 | 0.0 | 0.0 | 0.00 | 2.49 | 0.00 | 95 | 1011.9 |
| 20260506214521 | 10 | 328 | 0.0 | 3.2 | 0.00 | 2.49 | 2.49 | 95 | 1011.7 |
| 20260506213003 | 10 | 328 | 1.6 | 1.6 | 0.00 | 2.49 | 2.49 | 95 | 1011.7 |
| 20260506211549 | 10 | 304 | 0.0 | 3.2 | 0.00 | 2.49 | 2.49 | 95 | 1011.8 |
| 20260506210032 | 10 | 311 | 0.0 | 0.0 | 0.00 | 2.49 | 2.49 | 95 | 1011.7 |
| 20260506204516 | 10 | 311 | 0.0 | 0.0 | 0.00 | 2.49 | 2.49 | 95 | 1011.7 |
| 20260506203052 | 10 | 311 | 0.0 | 3.2 | 0.00 | 2.49 | 2.49 | 95 | 1011.5 |
| 20260506201643 | 11 | 306 | 0.0 | 1.6 | 0.00 | 2.49 | 2.49 | 95 | 1011.5 |
| 20260506200037 | 11 | 305 | 0.0 | 1.6 | 0.00 | 2.49 | 2.49 | 95 | 1011.4 |
| 20260506194505 | 11 | 262 | 0.0 | 1.6 | 0.00 | 2.54 | 2.49 | 94 | 1011.3 |
| 20260506193047 | 11 | 262 | 0.0 | 1.6 | 0.00 | 2.54 | 2.49 | 94 | 1011.2 |
| 20260506191535 | 12 | 4 | 0.0 | 1.6 | 0.00 | 2.54 | 2.49 | 94 | 1011.2 |
| 20260506190019 | 12 | 4 | 0.0 | 0.0 | 0.00 | 2.54 | 2.49 | 94 | 1011.1 |
| 20260506184625 | 12 | 4 | 0.0 | 1.6 | 0.00 | 2.69 | 2.49 | 94 | 1010.8 |
| 20260506183036 | 12 | 4 | 0.0 | 1.6 | 0.00 | 2.69 | 2.49 | 93 | 1010.8 |
| 20260506181516 | 12 | 4 | 0.0 | 0.0 | 0.00 | 2.69 | 2.49 | 93 | 1010.7 |
| 20260506180051 | 12 | 4 | 0.0 | 1.6 | 0.00 | 2.69 | 2.49 | 92 | 1010.5 |
| 20260506174532 | 13 | 108 | 0.0 | 1.6 | 0.00 | 2.77 | 2.49 | 92 | 1010.4 |
| 20260506173011 | 13 | 63 | 0.0 | 1.6 | 0.00 | 2.77 | 2.49 | 91 | 1010.4 |
| 20260506171553 | 13 | 81 | 0.0 | 3.2 | 0.00 | 2.77 | 2.49 | 91 | 1010.2 |
| 20260506170026 | 12 | 75 | 1.6 | 3.2 | 0.00 | 2.77 | 2.49 | 90 | 1010.0 |
| 20260506164505 | 12 | 51 | 0.0 | 3.2 | 0.00 | 2.82 | 2.49 | 92 | 1010.0 |
| 20260506163043 | 12 | 48 | 1.6 | 3.2 | 0.03 | 2.82 | 2.49 | 92 | 1010.0 |
| 20260506161515 | 12 | 49 | 4.8 | 8.0 | 0.05 | 2.82 | 2.49 | 92 | 1010.0 |
| 20260506160107 | 12 | 30 | 4.8 | 14.5 | 0.15 | 2.82 | 2.49 | 92 | 1010.0 |
| 20260506154523 | 12 | 63 | 8.0 | 17.7 | 0.25 | 2.82 | 2.49 | 94 | 1010.0 |
| 20260506153058 | 12 | 86 | 8.0 | 12.9 | 0.36 | 2.79 | 2.46 | 95 | 1010.3 |
| 20260506151527 | 12 | 41 | 0.0 | 14.5 | 0.48 | 2.77 | 2.44 | 95 | 1010.4 |
| 20260506150100 | 12 | 64 | 3.2 | 6.4 | 0.84 | 2.69 | 2.34 | 94 | 1010.5 |
| 20260506144532 | 12 | 90 | 1.6 | 4.8 | 0.89 | 2.57 | 2.21 | 94 | 1010.7 |
| 20260506143059 | 12 | 105 | 3.2 | 6.4 | 0.81 | 2.44 | 2.11 | 94 | 1010.4 |
| 20260506141529 | 12 | 321 | 0.0 | 4.8 | 0.71 | 2.31 | 1.96 | 94 | 1010.2 |
| 20260506140159 | 12 | 307 | 1.6 | 11.3 | 0.51 | 1.85 | 1.52 | 94 | 1010.4 |
| 20260506134525 | 12 | 282 | 1.6 | 8.0 | 0.43 | 1.70 | 1.35 | 93 | 1010.4 |
| 20260506133051 | 12 | 304 | 0.0 | 8.0 | 0.38 | 1.65 | 1.27 | 92 | 1010.5 |
| 20260506131511 | 13 | 195 | 0.0 | 8.0 | 0.33 | 1.57 | 1.22 | 92 | 1010.6 |
| 20260506130039 | 13 | 255 | 4.8 | 8.0 | 0.05 | 1.32 | 0.97 | 89 | 1010.6 |
| 20260506124507 | 13 | 105 | 0.0 | 3.2 | 0.00 | 1.30 | 0.89 | 87 | 1010.6 |
| 20260506123042 | 13 | 62 | 1.6 | 4.8 | 0.00 | 1.30 | 0.89 | 88 | 1010.5 |
| 20260506121505 | 13 | 131 | 3.2 | 6.4 | 0.00 | 1.30 | 0.89 | 87 | 1010.7 |
| 20260506120104 | 14 | 150 | 0.0 | 4.8 | 0.00 | 1.30 | 0.89 | 89 | 1010.7 |
| 20260506114509 | 13 | 117 | 0.0 | 4.8 | 0.03 | 1.55 | 0.89 | 90 | 1011.0 |
| 20260506113039 | 13 | 17 | 0.0 | 3.2 | 0.03 | 1.55 | 0.89 | 91 | 1011.0 |
| 20260506111509 | 12 | 266 | 0.0 | 3.2 | 0.03 | 1.55 | 0.89 | 91 | 1011.2 |
| 20260506110041 | 12 | 150 | 0.0 | 0.0 | 0.03 | 1.55 | 0.89 | 91 | 1011.5 |
| 20260506104511 | 12 | 150 | 0.0 | 1.6 | 0.00 | 1.57 | 0.89 | 91 | 1011.7 |
| 20260506103043 | 12 | 277 | 0.0 | 3.2 | 0.00 | 1.57 | 0.89 | 91 | 1011.8 |
| 20260506101513 | 12 | 248 | 0.0 | 1.6 | 0.03 | 1.57 | 0.89 | 91 | 1011.8 |
| 20260506100043 | 11 | 205 | 0.0 | 1.6 | 0.08 | 1.57 | 0.89 | 93 | 1011.8 |
| 20260506094526 | 11 | 241 | 1.6 | 6.4 | 0.10 | 1.57 | 0.89 | 94 | 1011.8 |
| 20260506093049 | 11 | 252 | 0.0 | 8.0 | 0.20 | 1.57 | 0.89 | 94 | 1011.8 |
| 20260506091515 | 11 | 221 | 3.2 | 12.9 | 0.23 | 1.55 | 0.84 | 94 | 1011.7 |
| 20260506090047 | 11 | 198 | 3.2 | 8.0 | 0.23 | 1.50 | 0.79 | 94 | 1011.6 |
| 20260506084523 | 11 | 233 | 3.2 | 9.7 | 0.33 | 1.45 | 0.79 | 94 | 1011.5 |
| 20260506083055 | 11 | 179 | 0.0 | 3.2 | 0.43 | 1.37 | 0.69 | 94 | 1011.5 |
| 20260506081525 | 11 | 181 | 0.0 | 3.2 | 0.48 | 1.32 | 0.61 | 94 | 1011.3 |
| 20260506073100 | 11 | 295 | 3.2 | 8.0 | 0.25 | 0.97 | 0.25 | 94 | 1011.5 |
| 20260506071517 | 11 | 335 | 3.2 | 6.4 | 0.13 | 0.81 | 0.13 | 94 | 1011.7 |
| 20260506070108 | 11 | 241 | 1.6 | 8.0 | 0.05 | 0.76 | 0.05 | 94 | 1011.7 |
| 20260506061531 | 11 | 181 | 0.0 | 1.6 | 0.00 | 0.71 | 0.00 | 95 | 1011.6 |
| 20260506050114 | 10 | 135 | 0.0 | 1.6 | 0.00 | 0.71 | 0.00 | 95 | 1011.5 |
| 20260506044536 | 10 | 81 | 0.0 | 1.6 | 0.00 | 0.71 | 0.00 | 95 | 1011.7 |
| 20260506043101 | 10 | 81 | 0.0 | 3.2 | 0.00 | 0.71 | 0.00 | 95 | 1011.7 |
| 20260506041546 | 10 | 156 | 0.0 | 1.6 | 0.00 | 0.71 | 0.00 | 95 | 1011.9 |
| 20260506040014 | 10 | 212 | 0.0 | 1.6 | 0.00 | 0.71 | 0.00 | 95 | 1012.0 |
| 20260506034543 | 10 | 212 | 0.0 | 3.2 | 0.00 | 0.71 | 0.00 | 95 | 1012.1 |
| 20260506033013 | 10 | 182 | 1.6 | 3.2 | 0.00 | 0.71 | 0.00 | 95 | 1012.1 |
| 20260506031555 | 10 | 66 | 0.0 | 1.6 | 0.00 | 0.71 | 0.00 | 95 | 1012.3 |
| 20260506030015 | 10 | 66 | 0.0 | 1.6 | 0.00 | 0.71 | 0.00 | 95 | 1012.2 |
| 20260506024545 | 10 | 66 | 0.0 | 1.6 | 0.00 | 0.71 | 0.00 | 95 | 1012.4 |
| 20260506023015 | 10 | 51 | 3.2 | 4.8 | 0.00 | 0.71 | 0.00 | 95 | 1012.4 |
| 20260506021545 | 10 | 95 | 1.6 | 1.6 | 0.00 | 0.71 | 0.00 | 95 | 1012.5 |
| 20260506020007 | 10 | 137 | 1.6 | 3.2 | 0.00 | 0.71 | 0.00 | 95 | 1012.7 |
| 20260506014539 | 10 | 191 | 0.0 | 0.0 | 0.00 | 0.71 | 0.00 | 95 | 1012.6 |
| 20260506013009 | 10 | 191 | 0.0 | 1.6 | 0.00 | 0.71 | 0.00 | 95 | 1012.9 |
| 20260506011533 | 10 | 102 | 0.0 | 1.6 | 0.00 | 0.71 | 0.00 | 95 | 1012.7 |
| 20260506010003 | 10 | 60 | 0.0 | 3.2 | 0.00 | 0.71 | 0.00 | 95 | 1012.6 |
| 20260506004604 | 10 | 326 | 0.0 | 1.6 | 0.00 | 0.71 | 0.00 | 95 | 1012.6 |
| 20260506003007 | 10 | 207 | 0.0 | 0.0 | 0.00 | 0.71 | 0.00 | 95 | 1012.6 |
| 20260506001537 | 10 | 207 | 0.0 | 1.6 | 0.00 | 0.71 | 0.00 | 95 | 1012.8 |
| 20260506000007 | 10 | 207 | 0.0 | 1.6 | 0.00 | 0.71 | 0.00 | 95 | 1012.8 |